Location: Jabiru
(12.6667°S, 132.8333°E)
Time: 15:50:36
(UTC+09:30)

X-37B - Visible Passes

Search period start: 04 August 2020 00:00
Search period end: 14 August 2020 00:00
Orbit: 384 x 389 km, 45.0° (Epoch: 29 July)

Date Brightness Start Highest point End Pass type
(mag) Time Alt. Az. Time Alt. Az. Time Alt. Az.
08 Aug ? 06:15:58 10° NW 06:19:07 72° NE 06:22:19 10° SE visible
09 Aug ? 05:19:35 20° NNE 05:20:39 23° NE 05:23:17 10° ESE visible
10 Aug ? 05:57:47 30° WSW 05:58:34 36° SW 06:01:33 10° SSE visible
